Weather History for KEIK - April, 2013

Change the Weather History Date:

Monday, April 15, 2013

  Actual Average (KBJC) Record (KBJC)
Temperature  
Mean Temperature 32 °F -  
Max Temperature 38 °F 56 °F 82 °F (2008)
Min Temperature 23 °F 35 °F 23 °F (2013)
Degree Days  
Heating Degree Days 32    
Moisture  
Dew Point 25 °F    
Average Humidity 80    
Maximum Humidity 99    
Minimum Humidity 39    
Precipitation  
Precipitation 0.00 in - - ()
Sea Level Pressure  
Sea Level Pressure 29.79 in    
Wind  
Wind Speed 7 mph (NNE)    
Max Wind Speed 14 mph    
Max Gust Speed 20 mph    
Visibility 5 miles    
Events Snow    
Averages and records for this station are not official NWS values.
T = Trace of Precipitation, MM = Missing Value Source: NWS Daily Summary

Daily Weather History Graph

Daily Weather History Graph

Search for Another Location

Airport or City:

Trip Planner

Search our weather history database for the weather conditions in past years. The results will help you decide how hot, cold, wet, or windy it might be!

Date:

Astronomy

Apr. 15, 2013 Rise Set
Actual Time 6:21 AM MDT 7:39 PM MDT
Civil Twilight 5:53 AM MDT 8:07 PM MDT
Nautical Twilight 5:20 AM MDT 8:40 PM MDT
Astronomical Twilight 4:45 AM MDT 9:16 PM MDT
Moon 9:50 AM MDT (4/15) No Moon Set
Length of Visible Light 14h 13m
Length of Day
13h 17m
Waxing Crescent, 25% of the Moon is Illuminated
Apr 15
Waxing Crescent
Apr 18
First Quarter
Apr 25
Full
May 2
Last Quarter
May 9
New

Hourly Weather History & Observations

Time (MDT) Temp. Windchill Dew Point Humidity Pressure Visibility Wind Dir Wind Speed Gust Speed Precip Events Conditions
12:16 AM 37.9 °F 33.5 °F 16.5 °F 42% 29.74 in 10.0 mi SSE 5.8 mph - N/A   Scattered Clouds
12:36 AM 38.5 °F 32.1 °F 15.3 °F 39% 29.73 in 10.0 mi SSE 9.2 mph - N/A   Mostly Cloudy
12:56 AM 38.3 °F 33.9 °F 16.3 °F 41% 29.73 in 10.0 mi South 5.8 mph - N/A   Overcast
1:16 AM 37.9 °F 32.7 °F 16.9 °F 43% 29.73 in 10.0 mi SE 6.9 mph - N/A   Overcast
1:36 AM 38.3 °F - 18.0 °F 44% 29.76 in 10.0 mi Calm Calm - N/A   Overcast
1:56 AM 38.3 °F 35.9 °F 17.2 °F 43% 29.77 in 10.0 mi ESE 3.5 mph - N/A   Overcast
2:16 AM 37.8 °F 33.3 °F 17.8 °F 44% 29.75 in 10.0 mi ENE 5.8 mph - N/A   Overcast
2:36 AM 37.6 °F 32.3 °F 16.7 °F 43% 29.77 in 10.0 mi ENE 6.9 mph - N/A   Overcast
2:56 AM 36.9 °F 31.4 °F 17.4 °F 45% 29.76 in 10.0 mi ENE 6.9 mph - N/A   Overcast
3:16 AM 36.5 °F 30.3 °F 18.0 °F 47% 29.76 in 10.0 mi NE 8.1 mph - N/A   Overcast
3:36 AM 33.8 °F 24.3 °F 20.5 °F 58% 29.75 in 10.0 mi NNE 13.8 mph - N/A   Overcast
3:56 AM 32.9 °F 23.7 °F 21.6 °F 63% 29.75 in 10.0 mi NNE 12.7 mph 19.6 mph N/A   Overcast
4:16 AM 32.9 °F 24.1 °F 22.3 °F 65% 29.74 in 10.0 mi NE 11.5 mph 16.1 mph N/A   Overcast
4:36 AM 32.0 °F 24.8 °F 23.2 °F 70% 29.75 in 10.0 mi NNE 8.1 mph - N/A   Overcast
4:56 AM 31.1 °F 23.1 °F 24.8 °F 77% 29.74 in 4.0 mi North 9.2 mph - N/A Snow Light Snow
5:16 AM 29.8 °F 22.2 °F 27.7 °F 92% 29.75 in 5.0 mi North 8.1 mph - N/A Snow Light Snow
5:36 AM 29.7 °F 24.7 °F 28.4 °F 95% 29.76 in 7.0 mi North 4.6 mph - N/A Snow Light Snow
5:56 AM 29.8 °F 24.9 °F 28.8 °F 96% 29.76 in 4.0 mi NNE 4.6 mph - N/A Snow Light Snow
6:16 AM 30.0 °F 23.2 °F 29.3 °F 97% 29.76 in 7.0 mi North 6.9 mph - N/A Snow Light Snow
6:36 AM 29.7 °F 22.0 °F 28.9 °F 97% 29.78 in 2.5 mi NNE 8.1 mph - N/A Snow Light Snow
6:56 AM 29.3 °F 23.2 °F 28.6 °F 97% 29.80 in 1.2 mi North 5.8 mph - N/A Snow Light Snow
7:16 AM 28.8 °F 22.6 °F 28.2 °F 98% 29.80 in 1.0 mi North 5.8 mph - N/A Snow Light Snow
7:36 AM 28.9 °F 21.9 °F 28.4 °F 98% 29.79 in 0.8 mi North 6.9 mph - N/A Snow Light Snow
7:56 AM 28.9 °F 22.8 °F 28.4 °F 98% 29.81 in 0.5 mi North 5.8 mph - N/A Snow Snow
8:16 AM 28.4 °F 22.2 °F 28.0 °F 99% 29.81 in 1.5 mi North 5.8 mph - N/A Snow Light Snow
8:36 AM 28.4 °F 21.2 °F 27.9 °F 98% 29.81 in 2.5 mi NNE 6.9 mph - N/A Snow Light Snow
8:56 AM 28.4 °F 22.2 °F 27.5 °F 96% 29.80 in 1.2 mi ENE 5.8 mph - N/A Snow Light Snow
9:16 AM 28.4 °F 20.4 °F 27.1 °F 95% 29.81 in 1.2 mi NE 8.1 mph - N/A Snow Light Snow
9:36 AM 28.4 °F 22.2 °F 27.1 °F 95% 29.82 in 2.0 mi ENE 5.8 mph - N/A Snow Light Snow
9:56 AM 28.8 °F - 27.3 °F 94% 29.83 in 1.2 mi Calm Calm - N/A Snow Light Snow
10:16 AM 28.4 °F 23.3 °F 27.0 °F 94% 29.81 in 0.8 mi ENE 4.6 mph - N/A Snow Light Snow
10:36 AM 28.4 °F 23.3 °F 27.0 °F 94% 29.81 in 7.0 mi NE 4.6 mph - N/A   Overcast
10:56 AM 28.9 °F 22.8 °F 27.3 °F 94% 29.83 in 4.0 mi North 5.8 mph - N/A Snow Light Snow
11:16 AM 29.1 °F 21.3 °F 27.5 °F 94% 29.83 in 2.5 mi NNW 8.1 mph - N/A Snow Light Snow
11:36 AM 29.3 °F 22.3 °F 28.2 °F 96% 29.84 in 0.5 mi NNW 6.9 mph - N/A Snow Light Snow
11:56 AM 29.3 °F 23.2 °F 28.2 °F 96% 29.82 in 0.5 mi North 5.8 mph - N/A Snow Light Snow
12:16 PM 29.3 °F 21.5 °F 28.4 °F 96% 29.85 in 0.2 mi NW 8.1 mph - N/A Snow Snow
12:36 PM 29.3 °F 22.3 °F 28.4 °F 96% 29.82 in 0.2 mi North 6.9 mph - N/A Snow Snow
12:56 PM 29.7 °F 22.8 °F 28.4 °F 95% 29.84 in 0.8 mi North 6.9 mph - N/A Snow Light Snow
1:16 PM 29.7 °F 22.8 °F 28.4 °F 95% 29.83 in 0.5 mi North 6.9 mph - N/A Snow Light Snow
1:36 PM 27.7 °F 18.2 °F 26.4 °F 95% 29.84 in 0.8 mi NNE 10.4 mph - N/A Snow Light Snow
1:51 PM 27.9 °F 19.8 °F 26.6 °F 95% 29.85 in 0.5 mi NNE 8.1 mph - N/A Snow Snow
11:56 PM 23.7 °F - 23.4 °F 99% 30.01 in 3.0 mi Calm Calm - N/A Snow Light Snow